Peoria, IL

6:31 PM CST on November 18, 2017 (GMT -0600)
Greater Peoria Regional

Weather History for KPIA - May, 2011

Change the Weather History Date:

Monday, May 23, 2011

  Actual Average Record
Temperature  
Mean Temperature 72 °F 64 °F  
Max Temperature 81 °F 75 °F 92 °F (1975)
Min Temperature 62 °F 54 °F 35 °F (1963)
Degree Days  
Heating Degree Days 0 3  
Month to date heating degree days 157 127  
Since 1 July heating degree days 5928 5792  
Cooling Degree Days 7 3  
Month to date cooling degree days 78 39  
Year to date cooling degree days 90 53  
Growing Degree Days 21 (Base 50)    
Moisture  
Dew Point 60 °F    
Average Humidity 70    
Maximum Humidity 90    
Minimum Humidity 49    
Precipitation  
Precipitation 0.00 in 0.14 in 1.41 in (2008)
Month to date precipitation 2.04 3.27  
Year to date precipitation 15.08 13.27  
Snow  
Snow 0.00 in 0.00 in 0.00 in ()
Month to date snowfall 0.0 0.0  
Since 1 July snowfall 52.5 24.6  
Snow Depth 0.00 in    
Sea Level Pressure  
Sea Level Pressure 29.66 in    
Wind  
Wind Speed 9 mph (SW)    
Max Wind Speed 21 mph    
Max Gust Speed 28 mph    
Visibility 10 miles    
Events      
T = Trace of Precipitation, MM = Missing Value Source: NWS Daily Summary

Daily Weather History Graph

Daily Weather History Graph

Search for Another Location

Airport or City:

Trip Planner

Search our weather history database for the weather conditions in past years. The results will help you decide how hot, cold, wet, or windy it might be!

Date:

Astronomy

May. 23, 2011 Rise Set
Actual Time 5:35 AM CDT 8:16 PM CDT
Civil Twilight 5:03 AM CDT 8:48 PM CDT
Nautical Twilight 4:23 AM CDT 9:27 PM CDT
Astronomical Twilight 3:38 AM CDT 10:13 PM CDT
Moon 12:44 AM CDT (5/23) 11:41 AM CDT (5/23)
Length of Visible Light 15h 44m
Length of Day
14h 40m
Waning Gibbous, 60% of the Moon is Illuminated
May 23
Waning Gibbous
May 24
Last Quarter
Jun 1
New
Jun 8
First Quarter
Jun 15
Full

Hourly Weather History & Observations

Time (CDT) Temp. Heat Index Dew Point Humidity Pressure Visibility Wind Dir Wind Speed Gust Speed Precip Events Conditions
12:54 AM 69.1 °F - 57.0 °F 65% 29.61 in 10.0 mi WSW 6.9 mph - N/A   Scattered Clouds
1:54 AM 66.0 °F - 57.0 °F 73% 29.60 in 10.0 mi SW 8.1 mph - N/A   Mostly Cloudy
2:54 AM 66.0 °F - 59.0 °F 78% 29.62 in 10.0 mi SW 9.2 mph - N/A   Overcast
3:54 AM 64.9 °F - 59.0 °F 81% 29.61 in 10.0 mi SSW 8.1 mph - N/A   Mostly Cloudy
4:54 AM 62.1 °F - 59.0 °F 90% 29.60 in 10.0 mi SW 6.9 mph - N/A   Clear
5:54 AM 62.1 °F - 57.9 °F 86% 29.62 in 10.0 mi SSW 9.2 mph - N/A   Clear
6:54 AM 64.0 °F - 59.0 °F 84% 29.65 in 10.0 mi SSW 10.4 mph - N/A   Clear
7:54 AM 68.0 °F - 61.0 °F 78% 29.65 in 10.0 mi SW 10.4 mph - N/A   Clear
8:54 AM 72.0 °F - 60.1 °F 66% 29.66 in 10.0 mi West 15.0 mph 20.7 mph N/A   Clear
9:54 AM 75.0 °F - 61.0 °F 62% 29.65 in 10.0 mi WSW 10.4 mph - N/A   Clear
10:54 AM 77.0 °F - 62.1 °F 60% 29.67 in 10.0 mi Variable 6.9 mph - N/A   Clear
11:54 AM 79.0 °F - 60.1 °F 52% 29.67 in 10.0 mi West 9.2 mph - N/A   Clear
12:54 PM 80.1 °F 80.9 °F 60.1 °F 50% 29.68 in 10.0 mi SSW 13.8 mph - N/A   Scattered Clouds
1:54 PM 79.0 °F - 59.0 °F 50% 29.69 in 10.0 mi SW 19.6 mph 26.5 mph N/A   Mostly Cloudy
2:54 PM 80.1 °F 80.7 °F 59.0 °F 48% 29.68 in 10.0 mi WSW 13.8 mph 25.3 mph N/A   Partly Cloudy
3:54 PM 80.1 °F 80.9 °F 60.1 °F 50% 29.66 in 10.0 mi West 12.7 mph 23.0 mph N/A   Clear
4:54 PM 79.0 °F - 61.0 °F 54% 29.66 in 10.0 mi WSW 12.7 mph 19.6 mph N/A   Clear
5:54 PM 75.9 °F - 63.0 °F 64% 29.65 in 10.0 mi SSW 13.8 mph - N/A   Clear
6:54 PM 75.9 °F - 63.0 °F 64% 29.65 in 10.0 mi West 9.2 mph - N/A   Clear
7:54 PM 73.9 °F - 64.0 °F 71% 29.68 in 10.0 mi SW 6.9 mph - N/A   Clear
8:54 PM 70.0 °F - 63.0 °F 78% 29.70 in 10.0 mi SW 6.9 mph - N/A   Clear
9:54 PM 69.1 °F - 63.0 °F 81% 29.72 in 10.0 mi WSW 5.8 mph - N/A   Clear
10:54 PM 66.9 °F - 62.1 °F 84% 29.72 in 10.0 mi SSW 3.5 mph - N/A   Clear
11:54 PM 66.0 °F - 62.1 °F 87% 29.75 in 10.0 mi Calm Calm - N/A   Clear